[[{"header":{"parameterUnit":"m.s-1","parameterCategory":1,"la1":30.2991,"la2":30.254,"lo1":-89.0895,"lo2":-89.0444,"dy":0.0017,"dx":0.0017,"nx":28,"ny":28,"refTime":"2024-03-20T21:00:00:Z","depth":0,"parameterNumber":2,"parameterNumberName":"U-component_of_WINDS"},"data":[0,0,0,0,0,0,0,0,0,0,0,0,0,0,0,0,0,0,0,0,0,0,0,0,0,0,0,0,0,0,0,0,0,0,0,0,0,0,0,0,0,0,0,0,0,0,0,0,0,0,0,0,0,0,0,0,0,0,-5.2435,-5.2434,0,-5.2319,-5.2317,-5.2316,-5.2169,-5.2167,-5.2164,-5.2162,-5.2034,-5.2033,-5.2032,0,0,0,0,0,0,0,0,0,0,0,0,0,-5.2526,-5.2525,-5.2435,-5.2434,-5.2432,-5.2319,-5.2317,-5.2316,-5.2169,-5.2167,-5.2164,-5.2161,-5.2035,-5.2033,-5.2032,0,0,0,0,0,0,0,0,0,0,0,0,0,-5.2456,-5.2525,-5.2435,-5.2346,-5.2337,-5.2319,-5.2317,-5.2315,-5.217,-5.2166,-5.2163,-5.216,-5.2035,-5.2034,-5.2032,-5.209,0,0,-5.2026,-5.2025,0,0,0,0,0,0,0,0,-5.246,-5.2452,-5.236,-5.2352,-5.2342,-5.2255,-5.2302,-5.2239,-5.2171,-5.2233,-5.2162,-5.2158,-5.211,-5.2102,-5.2087,-5.2084,-5.2079,-5.2026,-5.2025,-5.2024,-5.2023,0,0,0,0,0,0,0,-5.2465,-5.2456,-5.2389,-5.2359,-5.2348,-5.231,-5.2296,-5.229,-5.2192,-5.2227,-5.2216,-5.2205,-5.2104,-5.209,-5.2083,-5.2077,-5.2026,-5.2024,-5.2023,-5.2022,-5.2117,-5.2121,0,0,0,0,0,0,-5.2484,-5.2461,-5.2392,-5.2385,-5.2394,-5.2311,-5.2295,-5.2286,-5.2192,-5.2174,-5.2208,-5.2199,-5.2094,-5.2086,-5.2078,-5.2141,-5.2024,-5.2022,-5.2021,-5.2114,-5.2118,-5.2122,0,0,0,0,0,0,-5.2486,-5.2479,-5.2397,-5.242,-5.2407,-5.2313,-5.2304,-5.2286,-5.2271,-5.2178,-5.2159,-5.2212,-5.2091,-5.2081,-5.2089,-5.2134,-5.2021,-5.202,-5.2109,-5.2115,-5.212,-5.2267,0,0,0,0,0,0,-5.249,-5.2481,-5.2503,-5.2422,-5.2407,-5.2412,-5.2307,-5.2286,-5.2269,-5.2256,-5.2176,-5.2159,-5.2088,-5.2093,-5.2088,-5.213,-5.2018,-5.2105,-5.2112,-5.2118,-5.2257,-5.2276,-5.2293,0,0,0,0,0,-5.2493,-5.2547,-5.2505,-5.2497,-5.2433,-5.2415,-5.2406,-5.2325,-5.2273,-5.2294,-5.2235,-5.2162,-5.2132,-5.2095,-5.2088,-5.213,-5.2102,-5.211,-5.2118,-5.2249,-5.2273,-5.2292,0,0,0,0,0,0,-5.2632,-5.2534,-5.2487,-5.2516,-5.2476,-5.239,-5.2414,-5.2352,-5.2323,-5.2311,-5.221,-5.2193,-5.2214,-5.2173,-5.2134,-5.2183,-5.2106,-5.2113,-5.2208,-5.2229,-5.2247,-5.2255,-5.2017,0,0,0,0,0,-5.2667,-5.2663,-5.2577,-5.2611,-5.2593,-5.2508,-5.2497,-5.2439,-5.2392,-5.2373,-5.2313,-5.2268,-5.2248,-5.2237,-5.2213,-5.2252,-5.2232,-5.2278,-5.2296,-5.2311,-5.2317,-5.2335,-5.2354,-5.2149,-5.2149,-5.2149,0,0,-5.2736,-5.2683,-5.2685,-5.2637,-5.2599,-5.2595,-5.2494,-5.2494,-5.2489,-5.2371,-5.2376,-5.2333,-5.2275,-5.23,-5.2307,-5.2266,-5.237,-5.2321,-5.2334,-5.2331,-5.2345,-5.2364,-5.2382,-5.2154,-5.2153,-5.2152,0,0,-5.2862,-5.2822,-5.2846,-5.2811,-5.2756,-5.2699,-5.2706,-5.2631,-5.2598,-5.2603,-5.2515,-5.2508,-5.2476,-5.2439,-5.2416,-5.2533,-5.2464,-5.2528,-5.2619,-5.2638,-5.2654,-5.2668,-5.2709,-5.2725,-5.2536,-5.2536,-5.2536,0,-5.2955,-5.2947,-5.2866,-5.2872,-5.2853,-5.2751,-5.2774,-5.2744,-5.2683,-5.2671,-5.2627,-5.2587,-5.2541,-5.2556,-5.2585,-5.2571,-5.2573,-5.2535,-5.2659,-5.2672,-5.2684,-5.2721,-5.2737,-5.2544,-5.2543,-5.2542,-5.2542,0,-5.3064,-5.3061,-5.3087,-5.3035,-5.3019,-5.3034,-5.2954,-5.2948,-5.2893,-5.2841,-5.2847,-5.279,-5.2754,-5.2754,-5.2698,-5.2761,-5.2737,-5.2678,-5.2598,-5.2713,-5.2746,-5.276,-5.2556,-5.2553,-5.255,-5.2548,0,0,-5.3269,-5.3175,-5.3185,-5.3161,-5.3095,-5.3089,-5.3101,-5.3069,-5.3065,-5.3028,-5.3033,-5.3012,-5.2958,-5.2932,-5.2872,-5.2889,-5.2985,-5.2827,-5.2824,-5.2857,-5.305,-5.3094,-5.3112,-5.2941,-5.2944,-5.2946,-5.3055,0,-5.338,-5.3395,-5.3323,-5.3356,-5.3352,-5.3257,-5.3267,-5.3227,-5.318,-5.3168,-5.3115,-5.3101,-5.3031,-5.3015,-5.3028,-5.2971,-5.3022,-5.2962,-5.2943,-5.2943,-5.2958,-5.3129,-5.3174,-5.328,-5.3067,-5.307,-5.3071,0,-5.3511,-5.3484,-5.3518,-5.3452,-5.3448,-5.3458,-5.3424,-5.3415,-5.3368,-5.3332,-5.3307,-5.324,-5.3245,-5.3172,-5.3177,-5.3138,-5.3126,-5.3098,-5.31,-5.3092,-5.3012,-5.3124,-5.3312,-5.3327,-5.3091,-5.309,-5.3088,0,-5.3655,-5.3628,-5.3645,-5.3627,-5.3551,-5.3561,-5.3529,-5.3479,-5.3465,-5.3436,-5.3425,-5.3396,-5.3379,-5.3358,-5.3284,-5.3238,-5.3297,-5.3218,-5.3266,-5.3268,-5.3279,-5.3279,-5.3465,-5.3277,-5.3277,-5.3276,-5.3276,0,-5.3785,-5.3809,-5.3709,-5.3719,-5.3743,-5.3662,-5.3687,-5.3646,-5.3603,-5.3602,-5.3519,-5.352,-5.3424,-5.3414,-5.3357,-5.3369,-5.3362,-5.3332,-5.3316,-5.3338,-5.3342,-5.3327,-5.3316,-5.328,-5.3279,-5.3279,-5.3278,0,-5.3949,-5.3883,-5.3895,-5.3824,-5.3807,-5.3828,-5.3766,-5.3772,-5.3722,-5.3723,-5.3718,-5.3639,-5.3623,-5.3549,-5.3515,-5.3476,-5.3507,-5.3477,-5.3524,-5.3513,-5.3565,-5.356,-5.3745,-5.3765,-5.3567,-5.3569,-5.3571,0,-5.4035,-5.4052,-5.3984,-5.3979,-5.3953,-5.3945,-5.3932,-5.3853,-5.3843,-5.3793,-5.3805,-5.3783,-5.3761,-5.3741,-5.3678,-5.3652,-5.3619,-5.3687,-5.3614,-5.3637,-5.3618,-5.3618,-5.3618,-5.3701,-5.3703,-5.3705,-5.3707,0,-5.4195,-5.4162,-5.4147,-5.4123,-5.411,-5.4086,-5.4057,-5.4057,-5.3969,-5.3962,-5.3947,-5.3931,-5.3898,-5.3877,-5.3842,-5.3807,-5.3742,-5.3731,-5.374,-5.3762,-5.3788,-5.3773,-5.3564,-5.3726,-5.3724,-5.3723,-5.3722,-5.3721,-5.432,-5.4331,-5.4286,-5.4273,-5.4244,-5.4219,-5.4222,-5.4175,-5.4161,-5.4131,-5.4085,-5.4076,-5.403,-5.3976,-5.3948,-5.3938,-5.3901,-5.3915,-5.3918,-5.3922,-5.3933,-5.3793,-5.3932,-5.3931,-5.393,-5.393,-5.3929,0,-5.4474,-5.4442,-5.4431,-5.4394,-5.4385,-5.433,-5.4295,-5.4289,-5.4284,-5.4248,-5.423,-5.4213,-5.4194,-5.4133,-5.4107,-5.4111,-5.4081,-5.4107,-5.4104,-5.4097,-5.3968,-5.3962,-5.4132,-5.4132,-5.4132,-5.4132,-5.4132,-5.4132,-5.4553,-5.4569,-5.4532,-5.4533,-5.4499,-5.4492,-5.4477,-5.4454,-5.4425,-5.4411,-5.4396,-5.4358,-5.4312,-5.4282,-5.4262,-5.4244,-5.4238,-5.4273,-5.4246,-5.4126,-5.4106,-5.4087,-5.4081,-5.4273,-5.4273,-5.4375,-5.4376,-5.4377]},{"header":{"parameterUnit":"m.s-1","parameterCategory":1,"la1":30.2991,"la2":30.254,"lo1":-89.0895,"lo2":-89.0444,"dy":0.0017,"dx":0.0017,"nx":28,"ny":28,"refTime":"2024-03-20T21:00:00:Z","depth":0,"parameterNumber":3,"parameterNumberName":"V-component_of_WINDS"},"data":[0,0,0,0,0,0,0,0,0,0,0,0,0,0,0,0,0,0,0,0,0,0,0,0,0,0,0,0,0,0,0,0,0,0,0,0,0,0,0,0,0,0,0,0,0,0,0,0,0,0,0,0,0,0,0,0,0,0,3.6395,3.6397,0,3.6582,3.6584,3.6587,3.6674,3.6674,3.6674,3.6673,3.6861,3.6866,3.6871,0,0,0,0,0,0,0,0,0,0,0,0,0,3.6106,3.611,3.6394,3.6397,3.6399,3.6582,3.6585,3.6587,3.6674,3.6674,3.6674,3.6673,3.6859,3.6865,3.6871,0,0,0,0,0,0,0,0,0,0,0,0,0,3.6256,3.6112,3.6394,3.6465,3.6473,3.6581,3.6585,3.6588,3.6674,3.6674,3.6674,3.6673,3.6857,3.6864,3.6872,3.6923,0,0,3.6895,3.6899,0,0,0,0,0,0,0,0,3.6247,3.6266,3.6452,3.646,3.6469,3.6605,3.6551,3.67,3.6674,3.6597,3.6673,3.6673,3.6775,3.679,3.6825,3.6932,3.694,3.6896,3.6901,3.6904,3.6906,0,0,0,0,0,0,0,3.6237,3.6259,3.6469,3.6454,3.6465,3.6485,3.6506,3.658,3.6685,3.6604,3.6611,3.6632,3.678,3.6817,3.683,3.6942,3.6896,3.6902,3.6907,3.691,3.7099,3.71,0,0,0,0,0,0,3.6215,3.6249,3.6463,3.6474,3.6356,3.649,3.6514,3.6561,3.6684,3.6703,3.6632,3.6636,3.6804,3.6821,3.6837,3.6905,3.6904,3.6911,3.6915,3.7099,3.7099,3.71,0,0,0,0,0,0,3.6209,3.6234,3.6455,3.6364,3.6394,3.6496,3.6548,3.6565,3.6603,3.6706,3.6724,3.6652,3.6805,3.6826,3.6901,3.6913,3.6914,3.6921,3.7098,3.7099,3.71,3.7041,0,0,0,0,0,0,3.62,3.6231,3.6253,3.6364,3.6398,3.6518,3.6549,3.6569,3.6616,3.6623,3.6729,3.6746,3.6806,3.6889,3.6909,3.6923,3.6927,3.7098,3.7099,3.71,3.7042,3.704,3.7037,0,0,0,0,0,3.619,3.6228,3.6253,3.6279,3.6428,3.6518,3.6538,3.6608,3.6617,3.6639,3.6705,3.6743,3.6908,3.6896,3.6919,3.6936,3.7097,3.7098,3.7099,3.7044,3.704,3.7037,0,0,0,0,0,0,3.6114,3.6244,3.6274,3.6349,3.6422,3.6533,3.6563,3.6602,3.6673,3.6675,3.6757,3.6781,3.6848,3.6899,3.6884,3.6991,3.7006,3.7011,3.6956,3.6953,3.6951,3.6937,3.6934,0,0,0,0,0,3.6106,3.6171,3.628,3.6335,3.6371,3.646,3.6502,3.655,3.6628,3.6659,3.673,3.6803,3.6872,3.6915,3.6984,3.705,3.7074,3.7072,3.7069,3.7067,3.7071,3.7109,3.711,3.7103,3.7103,3.7103,0,0,3.6091,3.6169,3.6205,3.6322,3.6385,3.6448,3.6486,3.6551,3.6598,3.6668,3.6745,3.6799,3.6885,3.6956,3.6991,3.7001,3.7078,3.7068,3.7065,3.7071,3.711,3.7111,3.7111,3.7104,3.7104,3.7104,0,0,3.6095,3.6161,3.6215,3.6277,3.6371,3.643,3.6442,3.6548,3.6587,3.6665,3.6718,3.6774,3.6891,3.695,3.6996,3.7021,3.7058,3.704,3.7027,3.7063,3.7064,3.7065,3.7074,3.7076,3.7044,3.7044,3.7044,0,3.6064,3.6163,3.6237,3.63,3.635,3.6417,3.6471,3.6527,3.6638,3.6669,3.6679,3.6827,3.689,3.6975,3.6981,3.7015,3.7032,3.7029,3.7058,3.706,3.7062,3.7071,3.7074,3.7041,3.7041,3.7042,3.7042,0,3.6119,3.6187,3.6218,3.6326,3.6379,3.6436,3.6518,3.6562,3.6604,3.6661,3.6739,3.6817,3.6902,3.6925,3.6967,3.7016,3.702,3.7042,3.7059,3.7058,3.7069,3.7073,3.7037,3.7038,3.7039,3.704,0,0,3.6083,3.623,3.624,3.629,3.6398,3.645,3.651,3.6595,3.6631,3.6704,3.6756,3.6852,3.6874,3.6926,3.6974,3.7006,3.702,3.7025,3.7028,3.7022,3.7079,3.7062,3.7065,3.7045,3.7046,3.7047,3.7072,0,3.6102,3.6216,3.6284,3.6368,3.6431,3.6495,3.6547,3.6617,3.6672,3.6731,3.6791,3.6858,3.6882,3.6913,3.6947,3.7011,3.7033,3.701,3.7093,3.7095,3.7071,3.7071,3.7053,3.7073,3.7077,3.7077,3.7078,0,3.6141,3.6215,3.6305,3.6406,3.6435,3.6481,3.6564,3.662,3.6701,3.6738,3.6795,3.6844,3.6908,3.6918,3.7007,3.699,3.7027,3.7063,3.7066,3.7077,3.7087,3.7082,3.7081,3.7084,3.7085,3.7084,3.7084,0,3.6106,3.6227,3.6297,3.6337,3.6456,3.6487,3.6537,3.6618,3.6664,3.6736,3.6767,3.6844,3.6886,3.6944,3.7011,3.7013,3.7093,3.7109,3.7125,3.7123,3.714,3.7138,3.7146,3.7162,3.7162,3.7162,3.7162,0,3.6121,3.6174,3.6283,3.6326,3.6387,3.6463,3.6521,3.6576,3.6647,3.6701,3.676,3.6809,3.6895,3.6954,3.7006,3.7072,3.709,3.7121,3.7135,3.7117,3.7113,3.7143,3.7144,3.7163,3.7163,3.7163,3.7163,0,3.6093,3.6168,3.6249,3.6354,3.6382,3.6422,3.6512,3.6555,3.6612,3.6679,3.6699,3.6789,3.6861,3.6934,3.7031,3.7066,3.713,3.7148,3.7103,3.7111,3.7123,3.7121,3.7151,3.7159,3.7169,3.7169,3.7169,0,3.6098,3.6141,3.6251,3.6292,3.6342,3.6407,3.6455,3.6531,3.6578,3.6672,3.6704,3.6781,3.6847,3.6959,3.7031,3.7105,3.7126,3.7131,3.7137,3.7118,3.7127,3.7124,3.7128,3.7129,3.7128,3.7128,3.7127,0,3.61,3.6135,3.6203,3.6283,3.6339,3.6405,3.6473,3.6503,3.6592,3.6641,3.6717,3.6768,3.6867,3.6942,3.7025,3.7075,3.7116,3.7125,3.7133,3.7115,3.7088,3.7103,3.7097,3.7124,3.7124,3.7125,3.7125,3.7125,3.609,3.613,3.6214,3.6287,3.6347,3.6409,3.6455,3.6518,3.6583,3.6671,3.6711,3.6786,3.6864,3.698,3.7029,3.7088,3.7099,3.711,3.7113,3.7115,3.7111,3.7077,3.7103,3.7104,3.7104,3.7104,3.7104,0,3.6095,3.6152,3.6218,3.6312,3.6369,3.6403,3.648,3.6525,3.6592,3.6662,3.6726,3.6811,3.6884,3.6962,3.7039,3.7071,3.7092,3.7089,3.7088,3.7099,3.7097,3.7083,3.7071,3.7071,3.7071,3.7071,3.7071,3.7071,3.6104,3.6175,3.6219,3.6319,3.6375,3.6451,3.6492,3.6549,3.6606,3.67,3.6761,3.6812,3.6885,3.6968,3.7036,3.7056,3.7082,3.7074,3.71,3.7097,3.7099,3.7101,3.7089,3.7079,3.7079,3.7098,3.7098,3.7098]}]]